| time (UTC) | temp F | wind direction | speed knots | gust knots | rain 1hr in | rain 24hr in | rain mn in | humidity % | barometer mb |
| 20260507200812 | 45 | 0.0 | 0.0 | 0.00 | 0.00 | 0.00 | 81 | 927.1 | |
| 20260507200312 | 45 | 0.0 | 0.0 | 0.00 | 0.00 | 0.00 | 81 | 927.1 | |
| 20260507195812 | 45 | 0.0 | 0.0 | 0.00 | 0.00 | 0.00 | 81 | 927.0 | |
| 20260507195312 | 45 | 0.0 | 0.0 | 0.00 | 0.00 | 0.00 | 81 | 927.0 | |
| 20260507194812 | 45 | 0.0 | 0.0 | 0.00 | 0.00 | 0.00 | 81 | 926.9 | |
| 20260507194312 | 45 | 0.0 | 0.0 | 0.00 | 0.00 | 0.00 | 81 | 926.9 | |
| 20260507193812 | 46 | 0.0 | 0.0 | 0.00 | 0.00 | 0.00 | 81 | 926.9 | |
| 20260507193312 | 46 | 0.0 | 0.0 | 0.00 | 0.00 | 0.00 | 81 | 926.8 | |
| 20260507192812 | 46 | 0.0 | 0.0 | 0.00 | 0.00 | 0.00 | 81 | 926.8 | |
| 20260507192312 | 46 | 0.0 | 0.0 | 0.00 | 0.00 | 0.00 | 81 | 926.7 | |
| 20260507191812 | 46 | 0.0 | 0.0 | 0.00 | 0.00 | 0.00 | 81 | 926.7 | |
| 20260507191312 | 47 | 0.0 | 0.0 | 0.00 | 0.00 | 0.00 | 80 | 926.7 | |
| 20260507190812 | 47 | 0.0 | 0.0 | 0.00 | 0.00 | 0.00 | 81 | 926.6 | |
| 20260507190312 | 47 | 0.0 | 0.0 | 0.00 | 0.00 | 0.00 | 81 | 926.6 | |
| 20260507185812 | 47 | 0.0 | 0.0 | 0.00 | 0.00 | 0.00 | 80 | 926.5 | |
| 20260507185312 | 47 | 0.0 | 0.0 | 0.00 | 0.00 | 0.00 | 80 | 926.5 | |
| 20260507184812 | 47 | 0.0 | 0.0 | 0.00 | 0.00 | 0.00 | 80 | 926.5 | |
| 20260507184312 | 47 | 0.0 | 0.0 | 0.00 | 0.00 | 0.00 | 80 | 926.4 | |
| 20260507183812 | 47 | 0.0 | 0.0 | 0.00 | 0.00 | 0.00 | 80 | 926.3 | |
| 20260507183312 | 47 | 0.0 | 0.0 | 0.00 | 0.00 | 0.00 | 80 | 926.2 | |
| 20260507182812 | 47 | 0.0 | 0.0 | 0.00 | 0.00 | 0.00 | 80 | 926.1 | |
| 20260507182312 | 48 | 0.0 | 0.0 | 0.00 | 0.00 | 0.00 | 80 | 926.1 | |
| 20260507181812 | 47 | 0.0 | 0.0 | 0.00 | 0.00 | 0.00 | 80 | 925.9 | |
| 20260507181312 | 47 | 0.0 | 0.0 | 0.00 | 0.00 | 0.00 | 79 | 926.0 | |
| 20260507180812 | 47 | 0.0 | 0.0 | 0.00 | 0.00 | 0.00 | 79 | 926.2 | |
| 20260507180312 | 47 | 0.0 | 0.0 | 0.00 | 0.00 | 0.00 | 79 | 926.3 | |
| 20260507175812 | 47 | 0.0 | 0.0 | 0.00 | 0.00 | 0.00 | 79 | 926.4 | |
| 20260507175312 | 47 | 0.0 | 0.0 | 0.00 | 0.00 | 0.00 | 78 | 926.4 | |
| 20260507174812 | 48 | 0.0 | 0.0 | 0.00 | 0.00 | 0.00 | 78 | 926.3 | |
| 20260507174312 | 48 | 0.0 | 0.0 | 0.00 | 0.00 | 0.00 | 78 | 926.3 | |
| 20260507173812 | 48 | 0.0 | 0.0 | 0.00 | 0.00 | 0.00 | 78 | 926.2 | |
| 20260507173312 | 48 | 0.0 | 0.0 | 0.00 | 0.00 | 0.00 | 78 | 926.2 | |
| 20260507172812 | 48 | 0.0 | 0.0 | 0.00 | 0.00 | 0.00 | 78 | 926.1 | |
| 20260507172312 | 48 | 0.0 | 0.0 | 0.00 | 0.00 | 0.00 | 78 | 926.1 | |
| 20260507171812 | 48 | 0.0 | 0.0 | 0.00 | 0.00 | 0.00 | 77 | 926.0 | |
| 20260507171312 | 47 | 0.0 | 0.0 | 0.00 | 0.00 | 0.00 | 77 | 925.8 | |
| 20260507170812 | 47 | 0.0 | 0.0 | 0.00 | 0.00 | 0.00 | 77 | 925.8 | |
| 20260507170312 | 47 | 0.0 | 0.0 | 0.00 | 0.00 | 0.00 | 77 | 925.8 | |
| 20260507165812 | 47 | 0.0 | 0.0 | 0.00 | 0.00 | 0.00 | 78 | 925.7 | |
| 20260507165312 | 47 | 0.0 | 0.0 | 0.00 | 0.00 | 0.00 | 77 | 925.7 | |
| 20260507164812 | 47 | 0.0 | 0.0 | 0.00 | 0.00 | 0.00 | 77 | 925.7 | |
| 20260507164312 | 47 | 0.0 | 0.0 | 0.00 | 0.00 | 0.00 | 76 | 925.4 | |
| 20260507163812 | 47 | 0.0 | 0.0 | 0.00 | 0.00 | 0.00 | 75 | 925.3 | |
| 20260507163312 | 48 | 0.0 | 0.0 | 0.00 | 0.00 | 0.00 | 73 | 925.1 | |
| 20260507162812 | 49 | 0.0 | 0.0 | 0.00 | 0.00 | 0.00 | 70 | 925.3 | |
| 20260507162312 | 49 | 0.0 | 0.0 | 0.00 | 0.00 | 0.00 | 68 | 925.2 | |
| 20260507161812 | 51 | 0.0 | 0.0 | 0.00 | 0.00 | 0.00 | 62 | 924.8 | |
| 20260507161312 | 53 | 0.0 | 0.0 | 0.00 | 0.00 | 0.00 | 56 | 924.6 | |
| 20260507160812 | 54 | 0.0 | 0.0 | 0.00 | 0.00 | 0.00 | 56 | 924.7 | |
| 20260507160312 | 54 | 0.0 | 0.0 | 0.00 | 0.00 | 0.00 | 55 | 924.7 | |
| 20260507155812 | 53 | 0.0 | 0.0 | 0.00 | 0.00 | 0.00 | 58 | 924.6 | |
| 20260507155312 | 54 | 0.0 | 0.0 | 0.00 | 0.00 | 0.00 | 59 | 924.3 | |
| 20260507154812 | 54 | 0.0 | 0.0 | 0.00 | 0.00 | 0.00 | 59 | 924.2 | |
| 20260507154312 | 54 | 0.0 | 0.0 | 0.00 | 0.00 | 0.00 | 60 | 924.1 | |
| 20260507153812 | 54 | 0.0 | 0.0 | 0.00 | 0.00 | 0.00 | 60 | 924.1 | |
| 20260507153312 | 54 | 0.0 | 0.0 | 0.00 | 0.00 | 0.00 | 60 | 924.0 | |
| 20260507152812 | 54 | 0.0 | 0.0 | 0.00 | 0.00 | 0.00 | 59 | 924.0 | |
| 20260507152312 | 55 | 0.0 | 0.0 | 0.00 | 0.00 | 0.00 | 59 | 924.0 | |
| 20260507151812 | 55 | 0.0 | 0.0 | 0.00 | 0.00 | 0.00 | 60 | 923.9 | |
| 20260507151312 | 55 | 0.0 | 0.0 | 0.00 | 0.00 | 0.00 | 62 | 923.8 | |
| 20260507150812 | 54 | 0.0 | 0.0 | 0.00 | 0.00 | 0.00 | 63 | 923.9 | |
| 20260507150312 | 54 | 0.0 | 0.0 | 0.00 | 0.00 | 0.00 | 61 | 923.9 | |
| 20260507145812 | 54 | 0.0 | 0.0 | 0.00 | 0.00 | 0.00 | 64 | 923.9 | |
| 20260507145312 | 53 | 0.0 | 0.0 | 0.00 | 0.00 | 0.00 | 66 | 923.8 | |
| 20260507144812 | 52 | 0.0 | 0.0 | 0.00 | 0.00 | 0.00 | 67 | 923.8 | |
| 20260507144312 | 52 | 0.0 | 0.0 | 0.00 | 0.00 | 0.00 | 64 | 923.9 | |
| 20260507143812 | 54 | 0.0 | 0.0 | 0.00 | 0.00 | 0.00 | 58 | 923.7 | |
| 20260507143312 | 56 | 0.0 | 0.0 | 0.00 | 0.00 | 0.00 | 52 | 923.6 | |
| 20260507142812 | 57 | 0.0 | 0.0 | 0.00 | 0.00 | 0.00 | 51 | 923.7 | |
| 20260507142312 | 59 | 0.0 | 0.0 | 0.00 | 0.00 | 0.00 | 49 | 923.5 | |
| 20260507141812 | 60 | 0.0 | 0.0 | 0.00 | 0.00 | 0.00 | 49 | 923.4 | |
| 20260507141312 | 61 | 0.0 | 0.0 | 0.00 | 0.00 | 0.00 | 49 | 923.2 | |
| 20260507140812 | 59 | 0.0 | 0.0 | 0.00 | 0.00 | 0.00 | 51 | 923.2 | |
| 20260507140312 | 58 | 0.0 | 0.0 | 0.00 | 0.00 | 0.00 | 55 | 923.3 | |
| 20260507135812 | 58 | 0.0 | 0.0 | 0.00 | 0.00 | 0.00 | 54 | 923.3 | |
| 20260507135312 | 58 | 0.0 | 0.0 | 0.00 | 0.00 | 0.00 | 57 | 923.3 | |
| 20260507134812 | 57 | 0.0 | 0.0 | 0.00 | 0.00 | 0.00 | 57 | 923.3 | |
| 20260507134312 | 57 | 0.0 | 0.0 | 0.00 | 0.00 | 0.00 | 59 | 923.2 | |
| 20260507133812 | 56 | 0.0 | 0.0 | 0.00 | 0.00 | 0.00 | 61 | 923.1 | |
| 20260507133312 | 54 | 0.0 | 0.0 | 0.00 | 0.00 | 0.00 | 65 | 923.2 | |
| 20260507132812 | 53 | 0.0 | 0.0 | 0.00 | 0.00 | 0.00 | 69 | 923.3 | |
| 20260507132312 | 53 | 0.0 | 0.0 | 0.00 | 0.00 | 0.00 | 65 | 923.4 | |
| 20260507131812 | 55 | 0.0 | 0.0 | 0.00 | 0.00 | 0.00 | 56 | 923.2 | |
| 20260507131312 | 60 | 0.0 | 0.0 | 0.00 | 0.00 | 0.00 | 47 | 922.8 | |
| 20260507130812 | 62 | 0.0 | 0.0 | 0.00 | 0.00 | 0.00 | 42 | 922.5 | |
| 20260507130312 | 64 | 0.0 | 0.0 | 0.00 | 0.00 | 0.00 | 40 | 922.3 | |
| 20260507125812 | 66 | 0.0 | 0.0 | 0.00 | 0.00 | 0.00 | 39 | 922.4 | |
| 20260507125312 | 67 | 0.0 | 0.0 | 0.00 | 0.00 | 0.00 | 37 | 922.3 | |
| 20260507124812 | 70 | 0.0 | 0.0 | 0.00 | 0.00 | 0.00 | 37 | 922.2 | |
| 20260507124312 | 69 | 0.0 | 0.0 | 0.00 | 0.00 | 0.00 | 38 | 922.3 | |
| 20260507123812 | 66 | 0.0 | 0.0 | 0.00 | 0.00 | 0.00 | 40 | 922.4 | |
| 20260507123312 | 66 | 0.0 | 0.0 | 0.00 | 0.00 | 0.00 | 40 | 922.4 | |
| 20260507122812 | 66 | 0.0 | 0.0 | 0.00 | 0.00 | 0.00 | 40 | 922.5 | |
| 20260507122312 | 67 | 0.0 | 0.0 | 0.00 | 0.00 | 0.00 | 40 | 922.5 | |
| 20260507121812 | 66 | 0.0 | 0.0 | 0.00 | 0.00 | 0.00 | 42 | 922.5 | |
| 20260507121312 | 64 | 0.0 | 0.0 | 0.00 | 0.00 | 0.00 | 42 | 922.5 | |
| 20260507120812 | 64 | 0.0 | 0.0 | 0.00 | 0.00 | 0.00 | 42 | 922.5 | |
| 20260507120312 | 63 | 0.0 | 0.0 | 0.00 | 0.00 | 0.00 | 44 | 922.6 | |
| 20260507115812 | 64 | 0.0 | 0.0 | 0.00 | 0.00 | 0.00 | 42 | 922.6 | |
| 20260507115312 | 65 | 0.0 | 0.0 | 0.00 | 0.00 | 0.00 | 44 | 922.6 | |
| 20260507114812 | 63 | 0.0 | 0.0 | 0.00 | 0.00 | 0.00 | 47 | 922.7 | |
| 20260507114312 | 60 | 0.0 | 0.0 | 0.00 | 0.00 | 0.00 | 54 | 923.1 | |
| 20260507113812 | 58 | 0.0 | 0.0 | 0.00 | 0.00 | 0.00 | 52 | 923.1 | |
| 20260507113312 | 59 | 0.0 | 0.0 | 0.00 | 0.00 | 0.00 | 51 | 922.9 | |
| 20260507112812 | 60 | 0.0 | 0.0 | 0.00 | 0.00 | 0.00 | 45 | 922.9 | |
| 20260507112312 | 62 | 0.0 | 0.0 | 0.00 | 0.00 | 0.00 | 40 | 922.8 | |
| 20260507111812 | 63 | 0.0 | 0.0 | 0.00 | 0.00 | 0.00 | 39 | 922.6 | |
| 20260507111312 | 64 | 0.0 | 0.0 | 0.00 | 0.00 | 0.00 | 38 | 922.4 | |
| 20260507110812 | 66 | 0.0 | 0.0 | 0.00 | 0.00 | 0.00 | 37 | 922.4 | |
| 20260507110312 | 67 | 0.0 | 0.0 | 0.00 | 0.00 | 0.00 | 37 | 922.4 | |
| 20260507105812 | 67 | 0.0 | 0.0 | 0.00 | 0.00 | 0.00 | 37 | 922.4 | |
| 20260507105312 | 66 | 0.0 | 0.0 | 0.00 | 0.00 | 0.00 | 38 | 922.4 | |
| 20260507104812 | 66 | 0.0 | 0.0 | 0.00 | 0.00 | 0.00 | 38 | 922.5 | |
| 20260507104312 | 66 | 0.0 | 0.0 | 0.00 | 0.00 | 0.00 | 38 | 922.6 | |
| 20260507103812 | 67 | 0.0 | 0.0 | 0.00 | 0.00 | 0.00 | 37 | 922.7 | |
| 20260507103312 | 67 | 0.0 | 0.0 | 0.00 | 0.00 | 0.00 | 37 | 922.7 | |
| 20260507102812 | 67 | 0.0 | 0.0 | 0.00 | 0.00 | 0.00 | 37 | 922.7 | |
| 20260507102312 | 68 | 0.0 | 0.0 | 0.00 | 0.00 | 0.00 | 36 | 922.7 | |
| 20260507101812 | 69 | 0.0 | 0.0 | 0.00 | 0.00 | 0.00 | 36 | 922.8 | |
| 20260507101312 | 69 | 0.0 | 0.0 | 0.00 | 0.00 | 0.00 | 37 | 922.9 | |
| 20260507100812 | 69 | 0.0 | 0.0 | 0.00 | 0.00 | 0.00 | 37 | 922.9 | |
| 20260507100312 | 71 | 0.0 | 0.0 | 0.00 | 0.00 | 0.00 | 35 | 922.9 | |
| 20260507095812 | 71 | 0.0 | 0.0 | 0.00 | 0.00 | 0.00 | 35 | 923.0 | |
| 20260507095312 | 72 | 0.0 | 0.0 | 0.00 | 0.00 | 0.00 | 35 | 923.0 | |
| 20260507094812 | 74 | 0.0 | 0.0 | 0.00 | 0.00 | 0.00 | 33 | 923.0 | |
| 20260507094312 | 78 | 0.0 | 0.0 | 0.00 | 0.00 | 0.00 | 30 | 922.9 | |
| 20260507093812 | 76 | 0.0 | 0.0 | 0.00 | 0.00 | 0.00 | 33 | 922.9 | |
| 20260507093312 | 70 | 0.0 | 0.0 | 0.00 | 0.00 | 0.00 | 37 | 923.1 | |
| 20260507092812 | 70 | 0.0 | 0.0 | 0.00 | 0.00 | 0.00 | 37 | 923.1 | |
| 20260507092312 | 69 | 0.0 | 0.0 | 0.00 | 0.00 | 0.00 | 38 | 923.1 | |
| 20260507091812 | 70 | 0.0 | 0.0 | 0.00 | 0.00 | 0.00 | 36 | 923.0 | |
| 20260507091312 | 72 | 0.0 | 0.0 | 0.00 | 0.00 | 0.00 | 35 | 922.9 | |
| 20260507090439 | 74 | 0.0 | 0.0 | 0.00 | 0.00 | 0.00 | 34 | 922.9 | |
| 20260507085939 | 70 | 0.0 | 0.0 | 0.00 | 0.00 | 0.00 | 39 | 922.9 | |
| 20260507085439 | 67 | 0.0 | 0.0 | 0.00 | 0.00 | 0.00 | 41 | 923.0 | |
| 20260507084939 | 66 | 0.0 | 0.0 | 0.00 | 0.00 | 0.00 | 40 | 923.1 | |
| 20260507084439 | 67 | 0.0 | 0.0 | 0.00 | 0.00 | 0.00 | 38 | 923.1 | |
| 20260507083939 | 67 | 0.0 | 0.0 | 0.00 | 0.00 | 0.00 | 39 | 923.0 | |
| 20260507083439 | 66 | 0.0 | 0.0 | 0.00 | 0.00 | 0.00 | 38 | 923.1 | |
| 20260507082939 | 66 | 0.0 | 0.0 | 0.00 | 0.00 | 0.00 | 38 | 923.1 | |
| 20260507082439 | 71 | 0.0 | 0.0 | 0.00 | 0.00 | 0.00 | 33 | 922.9 | |
| 20260507081939 | 76 | 0.0 | 0.0 | 0.00 | 0.00 | 0.00 | 29 | 922.8 | |
| 20260507081439 | 86 | 0.0 | 0.0 | 0.00 | 0.00 | 0.00 | 23 | 922.6 | |
| 20260507080939 | 81 | 0.0 | 0.0 | 0.00 | 0.00 | 0.00 | 27 | 922.7 | |
| 20260507080439 | 77 | 0.0 | 0.0 | 0.00 | 0.00 | 0.00 | 30 | 922.7 | |
| 20260507075939 | 70 | 0.0 | 0.0 | 0.00 | 0.00 | 0.00 | 35 | 922.8 | |
| 20260507075439 | 75 | 0.0 | 0.0 | 0.00 | 0.00 | 0.00 | 31 | 922.7 | |
| 20260507074939 | 74 | 0.0 | 0.0 | 0.00 | 0.00 | 0.00 | 29 | 922.7 | |
| 20260507074439 | 71 | 0.0 | 0.0 | 0.00 | 0.00 | 0.00 | 30 | 922.7 | |
| 20260507073939 | 75 | 0.0 | 0.0 | 0.00 | 0.00 | 0.00 | 27 | 922.7 | |
| 20260507073439 | 80 | 0.0 | 0.0 | 0.00 | 0.00 | 0.00 | 25 | 922.6 | |
| 20260507072939 | 86 | 0.0 | 0.0 | 0.00 | 0.00 | 0.00 | 21 | 922.4 | |
| 20260507072439 | 86 | 0.0 | 0.0 | 0.00 | 0.00 | 0.00 | 21 | 922.4 | |
| 20260507071939 | 86 | 0.0 | 0.0 | 0.00 | 0.00 | 0.00 | 21 | 922.4 | |
| 20260507071439 | 88 | 0.0 | 0.0 | 0.00 | 0.00 | 0.00 | 20 | 922.4 | |
| 20260507070939 | 91 | 0.0 | 0.0 | 0.00 | 0.00 | 0.00 | 20 | 922.4 | |
| 20260507070439 | 87 | 0.0 | 0.0 | 0.00 | 0.00 | 0.00 | 23 | 922.3 | |
| 20260507065939 | 78 | 0.0 | 0.0 | 0.00 | 0.00 | 0.00 | 28 | 922.4 | |
| 20260507065439 | 75 | 0.0 | 0.0 | 0.00 | 0.00 | 0.00 | 31 | 922.4 | |
| 20260507064939 | 73 | 0.0 | 0.0 | 0.00 | 0.00 | 0.00 | 34 | 922.3 | |
| 20260507064439 | 69 | 0.0 | 0.0 | 0.00 | 0.00 | 0.00 | 39 | 922.4 | |
| 20260507063939 | 65 | 0.0 | 0.0 | 0.00 | 0.00 | 0.00 | 43 | 922.5 | |
| 20260507063439 | 63 | 0.0 | 0.0 | 0.00 | 0.00 | 0.00 | 45 | 922.5 | |
| 20260507062939 | 61 | 0.0 | 0.0 | 0.00 | 0.00 | 0.00 | 46 | 922.5 | |
| 20260507062439 | 60 | 0.0 | 0.0 | 0.00 | 0.00 | 0.00 | 46 | 922.6 | |
| 20260507061939 | 60 | 0.0 | 0.0 | 0.00 | 0.00 | 0.00 | 48 | 922.6 | |
| 20260507061439 | 59 | 0.0 | 0.0 | 0.00 | 0.00 | 0.00 | 50 | 922.6 | |
| 20260507060939 | 58 | 0.0 | 0.0 | 0.00 | 0.00 | 0.00 | 48 | 922.5 | |
| 20260507060439 | 58 | 0.0 | 0.0 | 0.00 | 0.00 | 0.00 | 45 | 922.5 | |
| 20260507055939 | 57 | 0.0 | 0.0 | 0.00 | 0.00 | 0.00 | 45 | 922.4 | |
| 20260507055439 | 57 | 0.0 | 0.0 | 0.00 | 0.00 | 0.00 | 45 | 922.3 | |
| 20260507054939 | 57 | 0.0 | 0.0 | 0.00 | 0.00 | 0.00 | 46 | 922.4 | |
| 20260507054439 | 56 | 0.0 | 0.0 | 0.00 | 0.00 | 0.00 | 46 | 922.4 | |
| 20260507053939 | 56 | 0.0 | 0.0 | 0.00 | 0.00 | 0.00 | 47 | 922.4 | |
| 20260507053439 | 56 | 0.0 | 0.0 | 0.00 | 0.00 | 0.00 | 48 | 922.4 | |
| 20260507052939 | 55 | 0.0 | 0.0 | 0.00 | 0.00 | 0.00 | 48 | 922.4 | |
| 20260507052439 | 55 | 0.0 | 0.0 | 0.00 | 0.00 | 0.00 | 48 | 922.4 | |
| 20260507051939 | 55 | 0.0 | 0.0 | 0.00 | 0.00 | 0.00 | 49 | 922.4 | |
| 20260507051439 | 55 | 0.0 | 0.0 | 0.00 | 0.00 | 0.00 | 50 | 922.5 | |
| 20260507050939 | 55 | 0.0 | 0.0 | 0.00 | 0.00 | 0.00 | 52 | 922.5 | |
| 20260507050439 | 55 | 0.0 | 0.0 | 0.00 | 0.00 | 0.00 | 54 | 922.5 | |
| 20260507045939 | 54 | 0.0 | 0.0 | 0.00 | 0.00 | 0.00 | 54 | 922.5 | |
| 20260507045439 | 54 | 0.0 | 0.0 | 0.00 | 0.00 | 0.00 | 56 | 922.5 | |
| 20260507044939 | 54 | 0.0 | 0.0 | 0.00 | 0.00 | 0.00 | 55 | 922.4 | |
| 20260507044439 | 54 | 0.0 | 0.0 | 0.00 | 0.00 | 0.00 | 54 | 922.3 | |
| 20260507043939 | 54 | 0.0 | 0.0 | 0.00 | 0.00 | 0.00 | 55 | 922.2 | |
| 20260507043439 | 53 | 0.0 | 0.0 | 0.00 | 0.00 | 0.00 | 57 | 922.2 | |
| 20260507042939 | 53 | 0.0 | 0.0 | 0.00 | 0.00 | 0.00 | 59 | 922.2 | |
| 20260507042439 | 53 | 0.0 | 0.0 | 0.00 | 0.00 | 0.00 | 60 | 922.1 | |
| 20260507041939 | 53 | 0.0 | 0.0 | 0.00 | 0.00 | 0.00 | 62 | 922.1 | |
| 20260507041439 | 52 | 0.0 | 0.0 | 0.00 | 0.00 | 0.00 | 63 | 922.1 | |
| 20260507040939 | 52 | 0.0 | 0.0 | 0.00 | 0.00 | 0.00 | 64 | 922.2 | |
| 20260507040439 | 52 | 0.0 | 0.0 | 0.00 | 0.00 | 0.00 | 65 | 922.2 | |
| 20260507035939 | 51 | 0.0 | 0.0 | 0.00 | 0.00 | 0.00 | 66 | 922.2 | |
| 20260507035439 | 51 | 0.0 | 0.0 | 0.00 | 0.00 | 0.00 | 67 | 922.1 | |
| 20260507034939 | 51 | 0.0 | 0.0 | 0.00 | 0.00 | 0.00 | 66 | 922.0 | |
| 20260507034439 | 51 | 0.0 | 0.0 | 0.00 | 0.00 | 0.00 | 67 | 922.0 | |
| 20260507033939 | 51 | 0.0 | 0.0 | 0.00 | 0.00 | 0.00 | 68 | 921.9 | |
| 20260507033439 | 50 | 0.0 | 0.0 | 0.00 | 0.00 | 0.00 | 68 | 921.9 | |
| 20260507032939 | 50 | 0.0 | 0.0 | 0.00 | 0.00 | 0.00 | 69 | 921.9 | |
| 20260507032439 | 51 | 0.0 | 0.0 | 0.00 | 0.00 | 0.00 | 67 | 921.7 | |
| 20260507031939 | 51 | 0.0 | 0.0 | 0.00 | 0.00 | 0.00 | 65 | 921.7 | |
| 20260507031439 | 51 | 0.0 | 0.0 | 0.00 | 0.00 | 0.00 | 66 | 921.7 | |
| 20260507030939 | 51 | 0.0 | 0.0 | 0.00 | 0.00 | 0.00 | 66 | 921.7 | |
| 20260507030439 | 52 | 0.0 | 0.0 | 0.00 | 0.00 | 0.00 | 65 | 921.7 | |
| 20260507025939 | 51 | 0.0 | 0.0 | 0.00 | 0.00 | 0.00 | 67 | 921.7 | |
| 20260507025439 | 50 | 0.0 | 0.0 | 0.00 | 0.00 | 0.00 | 68 | 921.6 | |
| 20260507024939 | 50 | 0.0 | 0.0 | 0.00 | 0.00 | 0.00 | 68 | 921.7 | |
| 20260507024439 | 50 | 0.0 | 0.0 | 0.00 | 0.00 | 0.00 | 67 | 921.5 | |
| 20260507023939 | 50 | 0.0 | 0.0 | 0.00 | 0.00 | 0.00 | 67 | 921.4 | |
| 20260507023439 | 51 | 0.0 | 0.0 | 0.00 | 0.00 | 0.00 | 66 | 921.5 | |
| 20260507022939 | 51 | 0.0 | 0.0 | 0.00 | 0.00 | 0.00 | 66 | 921.5 | |
| 20260507022439 | 51 | 0.0 | 0.0 | 0.00 | 0.00 | 0.00 | 67 | 921.5 | |
| 20260507021939 | 51 | 0.0 | 0.0 | 0.00 | 0.00 | 0.00 | 67 | 921.5 | |
| 20260507021439 | 50 | 0.0 | 0.0 | 0.00 | 0.00 | 0.00 | 67 | 921.5 | |
| 20260507020939 | 50 | 0.0 | 0.0 | 0.00 | 0.00 | 0.00 | 68 | 921.5 | |
| 20260507020439 | 50 | 0.0 | 0.0 | 0.00 | 0.00 | 0.00 | 67 | 921.4 | |
| 20260507015939 | 50 | 0.0 | 0.0 | 0.00 | 0.00 | 0.00 | 68 | 921.4 | |
| 20260507015439 | 50 | 0.0 | 0.0 | 0.00 | 0.00 | 0.00 | 68 | 921.3 | |
| 20260507014939 | 50 | 0.0 | 0.0 | 0.00 | 0.00 | 0.00 | 66 | 921.3 | |
| 20260507014439 | 51 | 0.0 | 0.0 | 0.00 | 0.00 | 0.00 | 66 | 921.3 | |
| 20260507013939 | 51 | 0.0 | 0.0 | 0.00 | 0.00 | 0.00 | 66 | 921.2 | |
| 20260507013439 | 51 | 0.0 | 0.0 | 0.00 | 0.00 | 0.00 | 66 | 921.3 | |
| 20260507012939 | 51 | 0.0 | 0.0 | 0.00 | 0.00 | 0.00 | 65 | 921.3 | |
| 20260507012439 | 52 | 0.0 | 0.0 | 0.00 | 0.00 | 0.00 | 65 | 921.2 | |
| 20260507011939 | 52 | 0.0 | 0.0 | 0.00 | 0.00 | 0.00 | 65 | 921.1 | |
| 20260507011439 | 51 | 0.0 | 0.0 | 0.00 | 0.00 | 0.00 | 66 | 921.1 | |
| 20260507010939 | 51 | 0.0 | 0.0 | 0.00 | 0.00 | 0.00 | 66 | 921.1 | |
| 20260507010439 | 52 | 0.0 | 0.0 | 0.00 | 0.00 | 0.00 | 65 | 921.1 | |
| 20260507005939 | 53 | 0.0 | 0.0 | 0.00 | 0.00 | 0.00 | 63 | 921.0 | |
| 20260507005439 | 53 | 0.0 | 0.0 | 0.00 | 0.00 | 0.00 | 63 | 920.9 | |
| 20260507004939 | 52 | 0.0 | 0.0 | 0.00 | 0.00 | 0.00 | 64 | 921.0 | |
| 20260507004439 | 52 | 0.0 | 0.0 | 0.00 | 0.00 | 0.00 | 65 | 921.0 | |
| 20260507003939 | 52 | 0.0 | 0.0 | 0.00 | 0.00 | 0.00 | 65 | 920.9 | |
| 20260507003439 | 52 | 0.0 | 0.0 | 0.00 | 0.00 | 0.00 | 65 | 920.9 | |
| 20260507002939 | 53 | 0.0 | 0.0 | 0.00 | 0.00 | 0.00 | 63 | 920.8 | |
| 20260507002439 | 53 | 0.0 | 0.0 | 0.00 | 0.00 | 0.00 | 62 | 920.7 | |
| 20260507001939 | 53 | 0.0 | 0.0 | 0.00 | 0.00 | 0.00 | 63 | 920.7 | |
| 20260507001439 | 53 | 0.0 | 0.0 | 0.00 | 0.00 | 0.00 | 63 | 920.8 | |
| 20260507000939 | 53 | 0.0 | 0.0 | 0.00 | 0.00 | 0.00 | 63 | 920.7 | |
| 20260507000439 | 53 | 0.0 | 0.0 | 0.00 | 0.00 | 0.00 | 62 | 920.7 | |
| 20260506235939 | 54 | 0.0 | 0.0 | 0.00 | 0.00 | 0.00 | 61 | 920.7 | |
| 20260506235439 | 54 | 0.0 | 0.0 | 0.00 | 0.00 | 0.00 | 61 | 920.7 | |
| 20260506234939 | 54 | 0.0 | 0.0 | 0.00 | 0.00 | 0.00 | 61 | 920.7 | |
| 20260506234439 | 54 | 0.0 | 0.0 | 0.00 | 0.00 | 0.00 | 61 | 920.7 | |
| 20260506233939 | 54 | 0.0 | 0.0 | 0.00 | 0.00 | 0.00 | 60 | 920.7 | |
| 20260506233439 | 54 | 0.0 | 0.0 | 0.00 | 0.00 | 0.00 | 61 | 920.7 | |
| 20260506232939 | 55 | 0.0 | 0.0 | 0.00 | 0.00 | 0.00 | 61 | 920.6 | |
| 20260506232439 | 54 | 0.0 | 0.0 | 0.00 | 0.00 | 0.00 | 61 | 920.6 | |
| 20260506231939 | 54 | 0.0 | 0.0 | 0.00 | 0.00 | 0.00 | 61 | 920.6 | |
| 20260506231439 | 55 | 0.0 | 0.0 | 0.00 | 0.00 | 0.00 | 60 | 920.6 | |
| 20260506230939 | 55 | 0.0 | 0.0 | 0.00 | 0.00 | 0.00 | 60 | 920.6 | |
| 20260506230439 | 54 | 0.0 | 0.0 | 0.00 | 0.00 | 0.00 | 60 | 920.6 | |
| 20260506225939 | 55 | 0.0 | 0.0 | 0.00 | 0.00 | 0.00 | 59 | 920.6 | |
| 20260506225439 | 55 | 0.0 | 0.0 | 0.00 | 0.00 | 0.00 | 59 | 920.5 | |
| 20260506224939 | 55 | 0.0 | 0.0 | 0.00 | 0.00 | 0.00 | 60 | 920.4 | |
| 20260506224439 | 55 | 0.0 | 0.0 | 0.00 | 0.00 | 0.00 | 60 | 920.4 | |
| 20260506223939 | 56 | 0.0 | 0.0 | 0.00 | 0.00 | 0.00 | 59 | 920.5 | |
| 20260506223439 | 55 | 0.0 | 0.0 | 0.00 | 0.00 | 0.00 | 59 | 920.5 | |
| 20260506222939 | 56 | 0.0 | 0.0 | 0.00 | 0.00 | 0.00 | 58 | 920.5 | |
| 20260506222439 | 56 | 0.0 | 0.0 | 0.00 | 0.00 | 0.00 | 58 | 920.5 | |
| 20260506221939 | 56 | 0.0 | 0.0 | 0.00 | 0.00 | 0.00 | 58 | 920.5 | |
| 20260506221439 | 56 | 0.0 | 0.0 | 0.00 | 0.00 | 0.00 | 57 | 920.4 | |
| 20260506220939 | 56 | 0.0 | 0.0 | 0.00 | 0.00 | 0.00 | 57 | 920.3 | |
| 20260506220439 | 56 | 0.0 | 0.0 | 0.00 | 0.00 | 0.00 | 57 | 920.4 | |
| 20260506215939 | 56 | 0.0 | 0.0 | 0.00 | 0.00 | 0.00 | 57 | 920.4 | |
| 20260506215439 | 56 | 0.0 | 0.0 | 0.00 | 0.00 | 0.00 | 57 | 920.3 | |
| 20260506214939 | 56 | 0.0 | 0.0 | 0.00 | 0.00 | 0.00 | 56 | 920.2 | |
| 20260506214439 | 57 | 0.0 | 0.0 | 0.00 | 0.00 | 0.00 | 56 | 920.2 | |
| 20260506213939 | 57 | 0.0 | 0.0 | 0.00 | 0.00 | 0.00 | 55 | 920.1 | |
| 20260506213439 | 57 | 0.0 | 0.0 | 0.00 | 0.00 | 0.00 | 54 | 920.0 | |
| 20260506212939 | 58 | 0.0 | 0.0 | 0.00 | 0.00 | 0.00 | 54 | 920.0 | |
| 20260506212439 | 58 | 0.0 | 0.0 | 0.00 | 0.00 | 0.00 | 54 | 920.0 | |
| 20260506211939 | 58 | 0.0 | 0.0 | 0.00 | 0.00 | 0.00 | 54 | 920.1 | |
| 20260506211439 | 58 | 0.0 | 0.0 | 0.00 | 0.00 | 0.00 | 53 | 920.1 | |
| 20260506210939 | 58 | 0.0 | 0.0 | 0.00 | 0.00 | 0.00 | 53 | 920.0 | |
| 20260506210439 | 58 | 0.0 | 0.0 | 0.00 | 0.00 | 0.00 | 53 | 920.1 | |
| 20260506205939 | 58 | 0.0 | 0.0 | 0.00 | 0.00 | 0.00 | 53 | 920.1 | |
| 20260506205439 | 58 | 0.0 | 0.0 | 0.00 | 0.00 | 0.00 | 53 | 920.1 | |
| 20260506204939 | 58 | 0.0 | 0.0 | 0.00 | 0.00 | 0.00 | 54 | 920.1 | |
| 20260506204439 | 58 | 0.0 | 0.0 | 0.00 | 0.00 | 0.00 | 53 | 920.0 | |
| 20260506203939 | 58 | 0.0 | 0.0 | 0.00 | 0.00 | 0.00 | 53 | 920.0 | |
| 20260506203439 | 58 | 0.0 | 0.0 | 0.00 | 0.00 | 0.00 | 53 | 920.0 | |
| 20260506202939 | 58 | 0.0 | 0.0 | 0.00 | 0.00 | 0.00 | 53 | 919.9 | |
| 20260506202439 | 58 | 0.0 | 0.0 | 0.00 | 0.00 | 0.00 | 52 | 919.9 | |
| 20260506201939 | 59 | 0.0 | 0.0 | 0.00 | 0.00 | 0.00 | 51 | 919.7 | |
| 20260506201439 | 59 | 0.0 | 0.0 | 0.00 | 0.00 | 0.00 | 52 | 919.8 |